Submittal Forms
Current Contests
Recent Contests

Club Activity Tracker - Contest Club Ontario (from club selection on form)

Recent postings for the selected club or group are listed below. Other than the call used, all calls listed are only those associated with the club or group. Click on a call to see the details of the posting.
Status Key: new=new posting, update=update prior posting, move=change club/group, delete=delete prior posting.

Sort by   for past

TimestampCallContestClassPowerScoreStatus
2021-05-14 21:01:32VE3TMKRC SSTSingle OpLP256new6426
2021-05-14 03:04:18VE3YTNCCC SprintSingle OpLP1,131new6425
2021-05-13 22:04:41VA3SBCWopsTSingle OpHP13,407new6421
2021-05-13 22:03:21VA3SBCWopsTSingle OpHP4,624new6420
2021-05-13 22:02:20VA3SBCWopsTSingle OpHP625new6419
2021-05-13 04:05:35VE3KICWopsTSingle OpLP8,342new6421
2021-05-12 21:01:58VE3MACWopsTSingle OpLP4,356new6420
2021-05-12 20:07:15VE3KICWopsTSingle OpLP6,970new6420
2021-05-12 20:03:05VE3TMCWopsTSingle OpLP2,025new6420
2021-05-12 20:02:22VE3TWCWopsTSingle OpHP4,692new6420
 
2021-05-12 20:01:50VE3EJCWopsTSingle OpHP21,312new6420
2021-05-12 20:01:38VE3NNTCWopsTSingle OpHP21,021new6420
2021-05-12 19:39:51VE3MVCWopsTSingle OpLP900new6420
2021-05-12 17:29:12VE3MACWopsTSingle OpLP3,024new6419
2021-05-12 15:06:41VE3TMCWopsTSingle OpLP4,550new6419
2021-05-12 14:29:27VE3MVCWopsTSingle OpLP400new6419
2021-05-12 14:05:53VE3GFNCWopsTSingle OpLP4,420new6419
2021-05-12 14:03:11VE3NNTCWopsTSingle OpHP24,336new6419
2021-05-12 14:03:00VE3KICWopsTSingle OpLP7,654new6419
2021-05-12 14:01:55VE3TWCWopsTSingle OpHP2,907new6419
 
2021-05-12 14:01:36VE3EJCWopsTSingle OpHP28,350new6419
2021-05-12 14:01:25VE3MGYCWopsTSingle OpLP18,864new6419
2021-05-10 16:22:23VE3YTArQPM/SHP260new6413
 (@VE3YT)
2021-05-10 01:07:30VE3VNCQ-MSOABCWHP18,668new6412
2021-05-09 23:01:49VE3NNTCQ-MSOABCWHP169,167update6412
2021-05-09 19:05:08VE3TMCQ-MSOABCWLP32,890new6412
2021-05-09 14:43:58VE3WGArQPSOMixedLP361update6413
2021-05-09 12:50:38VA6RCN(VE3RCN)Volta RTTYSOABLP315,900new6411
2021-05-09 12:11:11VE3MGYVolta RTTYSOABLP21,505,176new6411
2021-05-09 11:37:55VE3CWUArQPSOMixedLP1,430new6413
 
2021-05-09 11:27:22VE3DQNArQPSOMixedQRP55new6413
2021-05-09 02:03:29VA3AMXArQPSOCWQRP198new6413
2021-05-09 00:26:19VE3YFVolta RTTYSOABLP18,936,540new6411
2021-05-08 20:51:24VA3PCArQPSOSSBLP285new6413
2021-05-08 14:47:44VE3AYRNewEngQPSingle OpLP2,600new6397
2021-05-08 14:46:10VE3AYR7QPSOCWLP168new6394
2021-05-08 14:43:20VE3AYRInQPSingle OpLP8new6395
2021-05-08 01:58:59VE3MVKRC SSTSingle OpLP64new6410
2021-05-07 03:04:54VE3YTNCCC SprintSingle OpLP1,102new6409
2021-05-06 10:37:58VA3SBCWopsTSingle OpHP8,464new6404
 
2021-05-06 10:36:37VA3SBCWopsTSingle OpHP3,844new6403
2021-05-06 10:35:38VA3SBCWopsTSingle OpHP11,881new6402
2021-05-06 04:17:21VE3KICWopsTSingle OpLP9,207new6404
2021-05-06 04:05:43VE3GFNCWopsTSingle OpLP5,846new6404
2021-05-06 04:02:37VE3NNTCWopsTSingle OpHP13,689new6404
2021-05-06 02:41:12VE3MACWopsTSingle OpLP6,080new6403
2021-05-05 20:08:32VE3KICWopsTSingle OpLP8,730new6403
2021-05-05 20:01:59VE3NNTCWopsTSingle OpHP19,035new6403
2021-05-05 20:01:10VE3MVCWopsTSingle OpLP5,698new6403
2021-05-05 15:23:17VE3MACWopsTSingle OpLP7,055new6402
 
2021-05-05 14:51:47VE3TMCWopsTSingle OpLP4,422new6402
2021-05-05 14:06:28VE3NNTCWopsTSingle OpHP16,632new6402
2021-05-05 14:03:37VE3KICWopsTSingle OpLP10,816new6402
2021-05-05 14:01:52VE3MGYCWopsTSingle OpLP18,612new6402
2021-05-05 14:01:23VE3MVCWopsTSingle OpLP5,256new6402
2021-05-04 15:57:26VE3KJQNewEngQPSingle OpQRP1,702new6397
2021-05-04 15:55:39VE3KJQ7QPSOCWQRP429new6394
2021-05-04 15:53:32VE3KJQInQPSingle OpQRP24new6395
2021-05-04 00:12:37VA3DKLInQPSingle OpLP1,680new6395
2021-05-04 00:11:31VA3DKLNewEngQPSingle OpLP10,340new6397
 
2021-05-04 00:10:22VA3DKLDeQPSingle OpLP1,360new6396
2021-05-03 23:26:48VA3PAF7QPSO(A)MixedLP5,066new6394
2021-05-03 23:23:05VA3PAFNewEngQPSingle OpLP3,604new6397
2021-05-03 23:20:29VA3PAFInQPSingle OpLP551new6395
2021-05-03 23:15:59VA3PAFDeQPSingle OpLP160new6396
2021-05-03 20:15:56VE3YTInQPSingle OpHP2,940new6395
2021-05-03 20:14:38VE3YTNewEngQPSingle OpHP20,774new6397
2021-05-03 20:12:39VE3YTDeQPSingle OpHP280new6396
2021-05-03 20:11:18VE3YT7QPSO(A)MixedHP20,121new6394
2021-05-03 16:11:00VE2GTFlQPSOAB(A)SSBHP36new6375
 
2021-05-03 14:39:10VE3CWUNewEngQPSingle OpLP13,680new6397
2021-05-03 14:36:49VE3CWU7QPSO(A)CWLP3,888new6394
2021-05-03 14:17:17VE3DQNNewEngQPSingle OpQRP4,970new6397
2021-05-03 14:15:30VE3VYNewEngQPSingle OpLP12,626update6397
2021-05-03 12:25:26VE3DQNDeQPSingle OpQRP16new6396
2021-05-03 09:00:25VE3MGYNewEngQPSingle OpLP7,728new6397
2021-05-03 08:59:01VE3MGYInQPSingle OpLP264new6395
2021-05-03 08:57:19VE3MGY7QPSO(A)CWLP17,385new6394
2021-05-03 02:13:11VA3AMXNewEngQPSingle OpLP9,594new6397
2021-05-03 02:10:59VA3AMXInQPSingle OpLP280new6395
 
2021-05-03 02:09:40VA3AMXDeQPSingle OpLP800new6396
2021-05-03 02:07:38VA3AMX7QPSOCWLP11,484new6394
2021-05-03 01:49:24VE3MVKRC SSTSingle OpLP280new6398
2021-05-03 00:23:40VA3PCNewEngQPSingle OpLP2,108new6397
2021-05-03 00:22:50VA3PCDeQPSingle OpLP400new6396
2021-05-03 00:11:25VE3WGNewEngQPSingle OpLP19,600new6397
2021-05-02 21:35:03VA6RCN(VE3RCN)NewEngQPSingle OpLP45new6397
2021-05-02 16:33:21VE3NNTARISO CWHP418,683new6393
2021-05-02 15:21:57VE3TMARISO CWLP26,019new6393
2021-05-02 14:55:38VA6RCN(VE3RCN)7QPSOMixedLP1,512new6394
 
2021-05-02 13:30:34VE3VNARISO CWLP52,407new6393
2021-05-02 12:15:04VA3PCInQPSingle OpLP1,000new6395
2021-05-02 12:14:00VA3PC7QPSO(A)SSBLP1,782new6394
2021-05-02 11:33:15VE3DQN7QPSOCWLP390new6394
2021-05-02 11:19:47VE3DQNInQPSingle OpQRP560new6395
2021-04-30 21:03:29VE3MVKRC SSTSingle OpLP336new6391
2021-04-30 03:04:37VE3YTNCCC SprintSingle OpLP1,131new6390
2021-04-29 10:46:35VA3SBCWopsTSingle OpLP9,409new6386
2021-04-29 10:45:42VA3SBCWopsTSingle OpLP6,889new6385
2021-04-29 10:44:56VA3SBCWopsTSingle OpLP10,816new6384
 
2021-04-29 04:08:15VE3KICWopsTSingle OpHP13,431new6386
2021-04-29 04:06:59VE3NNTCWopsTSingle OpHP14,136new6386
2021-04-29 04:04:43VE3GFNCWopsTSingle OpLP7,310new6386
2021-04-29 04:03:33VE3MACWopsTSingle OpLP6,142new6386
2021-04-28 22:30:16VE3MACWopsTSingle OpLP1,369new6385
2021-04-28 20:06:21VE3KICWopsTSingle OpHP13,108new6385
2021-04-28 20:01:38VE3EJCWopsTSingle OpHP27,058new6385
2021-04-28 20:01:21VE3MVCWopsTSingle OpLP4,624new6385
2021-04-28 20:01:13VE3TMCWopsTSingle OpLP4,830new6385
2021-04-28 20:00:41VE3TWCWopsTSingle OpHP4,899new6385
 
2021-04-28 19:33:03VE3NNTCWopsTSingle OpHP2,116new6385
2021-04-28 14:05:38VE3GFNCWopsTSingle OpLP6,080new6384
2021-04-28 14:05:18VE3KICWopsTSingle OpHP11,663new6384
2021-04-28 14:04:42VE3NNTCWopsTSingle OpHP13,806new6384
2021-04-28 14:02:07VE3EJCWopsTSingle OpHP24,928new6384
2021-04-28 14:01:53VE3MVCWopsTSingle OpLP5,256new6384
2021-04-28 14:01:47VE3TMCWopsTSingle OpLP4,830new6384
2021-04-28 14:01:46VE3TWCWopsTSingle OpHP5,467new6384
2021-04-28 14:01:20VE3MGYCWopsTSingle OpLP21,840new6384
2021-04-26 20:10:44VE3AYRFlQPSOABCWLP2,280new6375
 
2021-04-26 19:34:03VE3WGFlQPSOABMixedLP27,060new6375
2021-04-26 17:49:42VE3DTI(VA3PCJ)FlQPSOABCWQRP120new6375
2021-04-26 16:11:27VE3MXJFlQPSOAB(A)SSBHP288new6375
2021-04-26 15:11:23VA3PAFFlQPSOAB(A)MixedLP23,002new6375
2021-04-26 08:47:13VE3MGYFlQPSOAB(A)CWLP20,056new6375
2021-04-26 01:40:14VE3CXFlQPSOAB(A)MixedHP63,440new6375
2021-04-26 01:22:35VE3RZFlQPSOAB(A)MixedLP160,230new6375
2021-04-26 01:13:34VA3PCFlQPSOABSSBLP3,128new6375
2021-04-26 00:29:47VE3KTBFlQPSOAB(A)MixedHP6,688new6375
2021-04-26 00:24:02VE3EJFlQPSOAB(A)CWLP20,160new6375
 
2021-04-25 23:45:04VE3VYFlQPSOABMixedLP71,200new6375
2021-04-25 23:29:41VE3PJFlQPSOAB(A)MixedLP110,160new6375
2021-04-25 23:19:12VA3DKLFlQPSOAB(A)MixedLP13,950new6375
2021-04-25 23:16:36VA3ECFlQPSOABCWLP23,808new6375
2021-04-25 23:14:09VA3AMXFlQPSOAB(A)CWQRP7,614new6375
2021-04-25 23:09:31VA3NGEFlQPSOAB(A)CWLP12,240new6375
2021-04-25 23:06:01VA3AMXHelvetiaSO CWQRP92new6373
2021-04-25 22:49:40VE3DQNFlQPSOABMixedQRP10,200new6375
2021-04-25 22:48:31VE3UZFlQPSOABMixedLP42,048new6375
2021-04-25 22:39:01VE3RKSFlQPSOAB(A)SSBLP646new6375
 
2021-04-25 22:35:11VE3VNFlQPSOABCWLP22,800new6375
2021-04-25 22:30:22VE3TMFlQPSOABMixedLP25,128new6375
2021-04-25 22:30:09VE3BRFlQPSOABMixedLP16,626new6375
2021-04-25 22:21:17VE3IDTFlQPSOABSSBLP273new6375
2021-04-25 22:10:47VE3TWFlQPSOABMixedHP40,744new6375
2021-04-25 22:06:39VE3YTFlQPSOABMixedHP41,976new6375
2021-04-25 22:06:02VE3NNTFlQPSOAB(A)CWHP69,144new6375
2021-04-25 22:02:36VE3KZFlQPSOABCWQRP74,298update6375
2021-04-25 21:48:46VE3MVFlQPSOAB(A)MixedLP76,440new6375
2021-04-25 21:25:25VE3GFNFlQPSOAB(A)MixedLP28,320new6375
 
2021-04-25 18:53:31VA3DKLMiQPSingle OpLP15new6357
2021-04-25 18:51:21VA3DKLOnQPSO MixedLP22,253new5642
2021-04-25 18:02:42VE3AQFlQPSOAB(A)CWLP16,132new6375
2021-04-25 01:16:30VE3YFSPDX RTTYSOABLP71,817new6372
2021-04-24 01:54:17VE3DZOnQPSO CWHP72,288new5642
2021-04-23 03:06:08VE3YTNCCC SprintSingle OpLP1,364new6370
2021-04-22 16:50:15VA3SBCWopsTSingle OpHP7,921new6366
2021-04-22 16:49:29VA3SBCWopsTSingle OpHP9,604new6365
2021-04-22 16:48:43VA3SBCWopsTSingle OpHP9,409new6364
2021-04-22 15:56:53VE2GTOnQPSO SSBHP72new5642
 
2021-04-22 04:06:13VE3MACWopsTSingle OpLP8,217new6366
2021-04-22 04:05:11VE3GFNCWopsTSingle OpLP6,384new6366
2021-04-22 04:04:00VE3EYCWopsTSingle OpLP10,692new6366
2021-04-22 04:02:56VE3NNTCWopsTSingle OpHP21,600new6366
2021-04-22 04:02:31VE3KICWopsTSingle OpHP1,600new6366
2021-04-21 22:31:47VE3MACWopsTSingle OpLP4,225new6365
2021-04-21 22:30:28VE3MACWopsTSingle OpLP3,248new6364
2021-04-21 20:05:16VE3KICWopsTSingle OpHP13,924new6365
2021-04-21 20:02:19VE3NNTCWopsTSingle OpHP16,758new6365
2021-04-21 20:01:46VE3MVCWopsTSingle OpLP5,041new6365
 
2021-04-21 20:01:43VE3TWCWopsTSingle OpHP6,162new6365
2021-04-21 20:01:31VE3TMCWopsTSingle OpLP4,225new6365
2021-04-21 20:01:29VE3EJCWopsTSingle OpHP22,338new6365
2021-04-21 14:11:55VE3KICWopsTSingle OpHP19,044new6364
2021-04-21 14:06:34VE3GFNCWopsTSingle OpLP5,106new6364
2021-04-21 14:03:00VE3MGYCWopsTSingle OpLP20,010new6364
2021-04-21 14:01:54VE3EJCWopsTSingle OpHP28,851new6364
2021-04-21 14:01:37VE3MVCWopsTSingle OpLP4,160new6364
2021-04-21 00:23:00VE3KTBCQMM DXSOABLP3,770new6356
2021-04-21 00:18:43VE3KTBOnQPSO MixedLP24,565new5642
 
2021-04-20 23:06:26VA3PAFMiQPSingle OpLP1new6357
2021-04-20 23:02:26VA3TPSOnQPSO SSBLP16,340new5642
2021-04-20 22:52:43VA3PAFOnQPSO MixedLP2,349new5642
2021-04-20 16:12:22VE3DQNOnQPSO MixedQRP4,752update5642
2021-04-20 15:40:21VE3CVGOnQPSO SSBLP2,541new5642
2021-04-19 16:57:37VA3PCJ(VE3DTI,CX7RT)OnQPSO CWLP110new5642
2021-04-19 14:40:28VE3KZOnQPSO SSBHP93,152new5642
2021-04-19 14:34:39VE3FUOnQPSO MixedLP7,089new5642
2021-04-19 14:23:40VE3DTI(VA3PCJ,CX7RT)CQMM DXSOABLP1,824update6356
2021-04-19 13:54:47VA3ZVMiQPSingle OpHP437new6357
 
2021-04-19 13:50:05VA3ZVOnQPSO SSBHP24,900new5642
2021-04-19 12:00:44VE3SMAOnQPSO MixedLP71,982new5642
2021-04-19 09:30:00VE3HEUOnQPSO CWLP8,000new5642
2021-04-19 05:57:28VE3ODX(VE3NNT)OnQPSO CWHP453,040new5642
2021-04-19 02:59:29VE3VYOnQPSO MixedLP101,897new5642
2021-04-19 02:32:21VE3CXOnQPSO MixedHP575,052update5642
2021-04-19 02:22:00VA3CCO(@VE3JM)OnQPSO MixedHP896,192new5642
2021-04-19 01:58:23VE3WGCQMM DXSOABLP17,920new6356
2021-04-18 22:59:36VE3AYROnQPSO MixedLP836new5642
2021-04-18 22:48:38VA3GUYOnQPSO CWLP198new5642
 
2021-04-18 20:59:42VE3BROnQPSO MixedHP124,440new5642
2021-04-18 20:46:20VE3OSZOnQPSO CWLP3,286new5642
2021-04-18 20:40:25VE3KJQOnQPSO MixedQRP126new5642
2021-04-18 19:56:05VE3WGOnQPSO MixedLP78,880new5642
2021-04-18 19:46:32VE3CVOnQPSO MixedLP6,048new5642
2021-04-18 19:46:11VE3WRLOnQPSO MixedLP102,277new5642
2021-04-18 19:40:45VA3RAC(@VA3DF)OnQPSO MixedHP470,185new5642
2021-04-18 19:25:33VE3EJOnQPSO CWHP1,241,550new5642
2021-04-18 19:16:43VE3MXJOnQPSO SSBHP1,623new5642
2021-04-18 19:13:44VA3NGEOnQPSO MixedLP7,590new5642
 
2021-04-18 19:00:55VA3ECOnQPSO CWLP12,376new5642
2021-04-18 18:42:53VE3VNOnQPSO CWLP136,800new5642
2021-04-18 18:25:52VE3MVOnQPSO CWLP15,840new5642
2021-04-18 18:25:12VE3YTOnQPSO MixedHP216,306new5642
2021-04-18 18:23:53VE3RKSOnQPSO SSBLP130new5642
2021-04-18 18:18:49VE3TWOnQPSO MixedHP53,040new5642
2021-04-18 18:15:57VE3AQOnQPSO CWLP41,818new5642
2021-04-18 18:11:58VE3TMOnQPSO CWLP75,692new5642
2021-04-18 18:11:13VE3PJOnQPSO SSBLP119,968new5642
2021-04-18 18:07:38VA6RCN(VE3RCN)OnQPSO CWLP64new5642
 
2021-04-18 18:05:49VE3MMOnQPSO CWLP42,521new5642
2021-04-18 18:04:44VA3AMXOnQPSO MixedQRP3,420new5642
2021-04-18 18:03:30VE3MGYOnQPSO CWLP431,680new5642
2021-04-18 18:02:58VA3GKOOnQPSO SSBLP59,081new5642
2021-04-18 17:51:17VA3PCOnQPSO SSBLP2,695new5642
2021-04-18 17:50:13VA3PCMiQPSingle OpLP216new6357
2021-04-18 11:09:48VE3DQNMiQPSingle OpQRP810new6357
2021-04-18 10:47:41VE3IDTOnQPSO SSBLP1,000new5642
2021-04-17 16:52:25VA3DKLGaQPSingle OpMixedLP648new6336
2021-04-16 22:10:32VA3SBCWopsTSingle OpHP9,025new6347
 
2021-04-16 22:09:30VA3SBCWopsTSingle OpHP5,625new6346
2021-04-16 22:08:22VA3SBCWopsTSingle OpHP625new6345
2021-04-16 03:04:50VE3YTNCCC SprintSingle OpLP800new6350
2021-04-15 16:04:37VE3DQNNeQPOut of StateQRP12update6334
2021-04-15 04:05:42VE3GFNCWopsTSingle OpLP8,096new6347
2021-04-15 04:04:13VE3MACWopsTSingle OpLP196new6347
2021-04-15 04:03:38VE3NNTCWopsTSingle OpHP12,996new6347
2021-04-15 04:03:22VE3KICWopsTSingle OpHP13,653new